Location: Cruquius
(52.3348°N, 4.6319°E)
Time: 18:44:40
(UTC+00:00)

Cosmos 2112 Rocket - Pass Details

Date: 12 May 2021
Orbit: 755 x 787 km, 74.1° (Epoch: 21 June)

Event Time Altitude Azimuth Distance (km) Brightness Sun altitude
Rises 21:01:11 0° 336° (NNW) 3,286 9.1 -11.6°
Reaches altitude 10° 21:03:38 10° 340° (NNW) 2,357 7.8 -11.8°
Maximum altitude 21:08:55 57° 59° (ENE) 931 4.4 -12.3°
Enters shadow 21:12:56 17° 134° (SE) 1,889 5.4 -12.6°
